Regional Weather Roundup
Issued by NWS Newport/Morehead, NC

Current Version | Previous Version | Graphics & Text | Print | Product List | Glossary Off
Versions: 1 2 3 4 5 6 7 8 9 10 11 12 13 14 15 16 17 18 19 20 21 22 23 24 25 26 27 28 29 30 31 32 33 34 35 36 37 38 39 40 41 42 43 44 45 46 47 48 49 50

000
ASUS42 KMHX 262213
RWRMHX
WEATHER ROUNDUP FOR EASTERN NORTH CAROLINA
NATIONAL WEATHER SERVICE NEWPORT/MOREHEAD CITY NC
600 PM EDT TUE MAY 26 2015

NOTE: "FAIR" INDICATES FEW OR NO CLOUDS BELOW 12,000 FEET
WITH NO SIGNIFICANT WEATHER AND/OR OBSTRUCTIONS TO VISIBILITY

NCZ015>017-031-032-045>047-102-103-262300-
NORTH COAST

CITY           SKY/WX    TMP DP  RH WIND       PRES   REMARKS
EDENTON          N/A     81  69  67 S17G23    30.23S
ELIZABETH CITY MOSUNNY   79  68  69 SE14G23   30.23F
KITTY HAWK     CLEAR     77  65  65 S8G18     30.25F
MANTEO         SUNNY     76  66  71 S20       30.26F

$$

NCZ045>047-081-094-103-104-262300-
CENTRAL COAST

CITY           SKY/WX    TMP DP  RH WIND       PRES   REMARKS
FRISCO         SUNNY     78  64  61 S15       30.28F
SWANQUARTER      N/A     79 N/A N/A S20       30.21F

$$

NCZ095-097-098-100-101-262300-
SOUTHERN COAST

CITY           SKY/WX    TMP DP  RH WIND       PRES   REMARKS
BEAUFORT       SUNNY     77  67  71 S14G25    30.26F
CEDAR ISLAND     N/A     79 N/A N/A S15G24    30.30F
JACKSONVILLE   CLOUDY    78  68  71 S16       30.24F
PINEY ISLAND   CLEAR    N/A N/A N/A S15G23    30.26F
WILMINGTON     CLOUDY    78  70  76 SE12G22   30.24S


$$

NCZ011>013-027>030-043-044-078>080-089-090>093-098-262300-
COASTAL PLAIN

CITY           SKY/WX    TMP DP  RH WIND       PRES   REMARKS
AHOSKIE        SUNNY     85  65  51 S5        30.19F
CLINTON        MOSUNNY   81  73  77 SE6       30.22S
ELIZABETHTOWN  CLOUDY    81  73  76 SE7       30.21S
GOLDSBORO      PTSUNNY   82  70  67 SE8G16    30.19S
GREENVILLE     MOSUNNY   82  70  65 S12G18    30.22R
HAVELOCK       MOSUNNY   77  66  68 S14       30.26F
KENANSVILLE    MOSUNNY   78  69  73 SE8G17    30.23F
KINSTON        MOSUNNY   82  68  61 S9G22     30.22F
NEW BERN       SUNNY     79  67  66 S15G22    30.26S
RICHLANDS      MOSUNNY   79  66  65 S12G18    30.24F
ROCKY MOUNT    MOSUNNY   87  68  52 S13       30.19F
WASHINGTON     PTSUNNY   83  69  62 S15       30.22S
WHITEVILLE     MOSUNNY   82  67  62 SE9G16    30.21S

$$

AMZ130-135-150-152-154-156-158-170-250-252-270-ANZ085-086-088-633-658-670-262300-
MARINE OBSERVATIONS

STATION/POSITION TIME  TEMP    WIND        PRES    WAVE   SWELL
                       AIR SEA DIR/SP/G            HT/PER HT/PER
                 (UTC) (F)     (DEG/KT/KT) (MB)    (FT/S) (FT/S)
CHESAPEAKE LIGHT 2200   69     170/ 28/ 29 1023.2
64 E VA BEACH    2150   68 65  170/ 14/ 16 1024.7    3/ 5   2/ 9
DUCK             2100   74 63  160/ 20/ 23 1023.4
2 E DUCK         2111      65                N/A     3/ 5
OREGON INLET     2100   77 79  170/ 13/ 18 1025.7
13E OREGON INLT  2200      68                N/A     3/ 5
HATTERAS CG      2100   77 76  160/ 12/ 17 1025.5
DIAMOND BUOY     2150   75 77  160/ 16/ 17 1025.6    3/ 7   2/ 7
CAPE LOOKOUT     2200   74     150/ 14/ 15 1024.6
BEAUFORT LAB     2100   77 76  170/ 12/ 15 1024.5
27 SE WRIGHTSVLE 2100   73 76  170/ 12/ 16   N/A
5 SE WRIGHTSVLE  2108   77 77  160/ 16/ 21 1024.1
225 S CAPE HAT   2150   74 75  110/ 12/ 14 1026.3    3/ 6   3/ 6
41 SE CHARLESTON 2150   76 76   60/ 10/ 12 1023.0    3/ 7   3/ 7

$$



USA.gov is the U.S. government's official web portal to all federal, state and local government web resources and services.